H1 CPF 2 NER 2025 9 9 9 252 01 glonass134 H2 1407501 9134 40315 2025 9 9 0 0 0 2025 9 12 23 45 0 900 1 1 0 0 0 1 H9 10 0 60927 0.00000 0 19254987.060 15496784.992 -6098207.971 10 0 60927 900.00000 0 18477992.104 14956816.179 -9106058.133 10 0 60927 1800.00000 0 17341196.344 14314293.695 -11935948.576 10 0 60927 2700.00000 0 15852225.678 13625845.659 -14532597.419 10 0 60927 3600.00000 0 14031485.255 12946989.217 -16845325.001 10 0 60927 4500.00000 0 11911521.407 12329638.577 -18829056.984 10 0 60927 5400.00000 0 9535878.580 11819786.118 -20445210.903 10 0 60927 6300.00000 0 6957500.177 11455456.242 -21662448.262 10 0 60927 7200.00000 0 4236741.632 11265019.286 -22457277.601 10 0 60927 8100.00000 0 1439080.315 11265936.623 -22814497.595 10 0 60927 9000.00000 0 -1367380.830 11463989.059 -22727472.842 10 0 60927 9900.00000 0 -4114510.824 11853019.509 -22198238.709 10 0 60927 10800.00000 0 -6736740.891 12415198.787 -21237435.166 10 0 60927 11700.00000 0 -9173540.036 13121801.031 -19864072.935 10 0 60927 12600.00000 0 -11371674.150 13934453.904 -18105138.460 10 0 60927 13500.00000 0 -13287156.665 14806808.951 -15995047.151 10 0 60927 14400.00000 0 -14886812.206 15686560.280 -13574956.969 10 0 60927 15300.00000 0 -16149391.205 16517725.660 -10891956.822 10 0 60927 16200.00000 0 -17066192.324 17243093.714 -7998146.222 10 0 60927 17100.00000 0 -17641170.076 17806734.551 -4949624.375 10 0 60927 18000.00000 0 -17890526.162 18156469.036 -1805408.220 10 0 60927 18900.00000 0 -17841804.237 18246194.087 1373700.073 10 0 60927 19800.00000 0 -17532527.910 18037967.691 4526275.072 10 0 60927 20700.00000 0 -17008440.242 17503767.490 7591438.122 10 0 60927 21600.00000 0 -16321418.939 16626850.338 10510014.258 10 0 60927 22500.00000 0 -15527154.318 15402656.627 13225655.230 10 0 60927 23400.00000 0 -14682686.494 13839221.693 15685908.631 10 0 60927 24300.00000 0 -13843903.684 11957076.623 17843214.227 10 0 60927 25200.00000 0 -13063104.938 9788641.285 19655809.865 10 0 60927 26100.00000 0 -12386727.930 7377132.928 21088530.842 10 0 60927 27000.00000 0 -11853335.816 4775033.165 22113488.321 10 0 60927 27900.00000 0 -11491946.739 2042174.022 22710614.236 10 0 60927 28800.00000 0 -11320775.963 -756480.676 22868062.109 10 0 60927 29700.00000 0 -11346443.967 -3553269.661 22582455.408 10 0 60927 30600.00000 0 -11563685.118 -6280386.192 21858977.358 10 0 60927 31500.00000 0 -11955571.148 -8872443.940 20711298.681 10 0 60927 32400.00000 0 -12494242.429 -11268951.808 19161342.420 10 0 60927 33300.00000 0 -13142118.934 -13416595.484 17238887.916 10 0 60927 34200.00000 0 -13853542.287 -15271230.596 14981019.086 10 0 60927 35100.00000 0 -14576781.710 -16799503.481 12431425.376 10 0 60927 36000.00000 0 -15256320.515 -17980030.422 9639567.038 10 0 60927 36900.00000 0 -15835326.890 -18804084.275 6659719.636 10 0 60927 37800.00000 0 -16258203.947 -19275758.012 3549915.830 10 0 60927 38700.00000 0 -16473109.555 -19411596.940 370805.250 10 0 60927 39600.00000 0 -16434336.952 -19239714.306 -2815544.227 10 0 60927 40500.00000 0 -16104452.476 -18798427.587 -5946878.707 10 0 60927 41400.00000 0 -15456096.806 -18134473.836 -8961997.741 10 0 60927 42300.00000 0 -14473370.543 -17300881.098 -11801974.255 10 0 60927 43200.00000 0 -13152742.974 -16354588.108 -14411328.566 10 0 60927 44100.00000 0 -11503443.733 -15353915.482 -16739131.246 10 0 60927 45000.00000 0 -9547319.720 -14355997.974 -18740011.353 10 0 60927 45900.00000 0 -7318162.987 -13414288.698 -20375049.057 10 0 60927 46800.00000 0 -4860538.221 -12576242.581 -21612534.632 10 0 60927 47700.00000 0 -2228159.961 -11881277.921 -22428579.090 10 0 60927 48600.00000 0 518111.249 -11359102.264 -22807565.321 10 0 60927 49500.00000 0 3312568.759 -11028472.469 -22742432.230 10 0 60927 50400.00000 0 6087158.692 -10896439.743 -22234788.077 10 0 60927 51300.00000 0 8774073.038 -10958109.302 -21294852.741 10 0 60927 52200.00000 0 11308329.008 -11196922.276 -19941232.072 10 0 60927 53100.00000 0 13630228.006 -11585445.322 -18200530.675 10 0 60927 54000.00000 0 15687593.322 -12086632.223 -16106812.441 10 0 60927 54900.00000 0 17437695.617 -12655502.154 -13700920.738 10 0 60927 55800.00000 0 18848788.586 -13241162.356 -11029672.657 10 0 60927 56700.00000 0 19901193.906 -13789089.062 -8144943.650 10 0 60927 57600.00000 0 20587893.309 -14243570.294 -5102660.649 10 0 60927 58500.00000 0 20914606.103 -14550208.020 -1961723.167 10 0 60927 59400.00000 0 20899351.574 -14658375.132 1217127.203 10 0 60927 60300.00000 0 20571516.731 -14523525.080 4372467.800 10 0 60927 61200.00000 0 19970469.847 -14109258.315 7443365.057 10 0 60927 62100.00000 0 19143778.566 -13389059.981 10370532.574 10 0 60927 63000.00000 0 18145107.145 -12347636.835 13097456.343 10 0 60927 63900.00000 0 17031880.160 -10981797.771 15571467.050 10 0 60927 64800.00000 0 15862809.238 -9300840.853 17744740.484 10 0 60927 65700.00000 0 14695384.727 -7326429.695 19575208.366 10 0 60927 66600.00000 0 13583435.579 -5091962.567 21027363.394 10 0 60927 67500.00000 0 12574857.926 -2641458.115 22072943.971 10 0 60927 68400.00000 0 11709606.155 -28001.017 22691485.993 10 0 60927 69300.00000 0 11018029.829 2688191.090 22870731.003 10 0 60927 70200.00000 0 10519626.038 5442002.518 22606882.200 10 0 60927 71100.00000 0 10222260.079 8165866.692 21904702.168 10 0 60927 72000.00000 0 10121888.497 10792326.602 20777448.588 10 0 60927 72900.00000 0 10202797.927 13256604.235 19246647.034 10 0 60927 73800.00000 0 10438351.913 15499073.296 17341702.706 10 0 60927 74700.00000 0 10792216.457 17467532.507 15099356.144 10 0 60927 75600.00000 0 11220014.642 19119184.134 12562991.131 10 0 60927 76500.00000 0 11671341.927 20422233.758 9781806.228 10 0 60927 77400.00000 0 12092057.627 21357042.595 6809864.782 10 0 60927 78300.00000 0 12426755.406 21916782.109 3705041.236 10 0 60927 79200.00000 0 12621307.027 22107561.648 527884.473 10 0 60927 80100.00000 0 12625369.547 21948022.424 -2659578.604 10 0 60927 81000.00000 0 12394747.071 21468414.296 -5795074.249 10 0 60927 81900.00000 0 11893503.906 20709194.507 -8817321.572 10 0 60927 82800.00000 0 11095736.524 19719208.529 -11667253.996 10 0 60927 83700.00000 0 9986926.459 18553531.616 -14289196.093 10 0 60927 84600.00000 0 8564814.592 17271064.483 -16631970.463 10 0 60927 85500.00000 0 6839758.298 15931987.179 -18649911.090 10 0 60928 0.00000 0 4834555.713 14595181.141 -20303761.941 10 0 60928 900.00000 0 2583743.301 13315729.524 -21561443.435 10 0 60928 1800.00000 0 132399.540 12142604.316 -22398669.753 10 0 60928 2700.00000 0 -2465497.713 11116635.812 -22799408.627 10 0 60928 3600.00000 0 -5149087.630 10268851.326 -22756173.653 10 0 60928 4500.00000 0 -7852932.196 9619251.005 -22270146.044 10 0 60928 5400.00000 0 -10509514.160 9176070.315 -21351125.285 10 0 60928 6300.00000 0 -13051822.684 8935557.538 -20017311.650 10 0 60928 7200.00000 0 -15415919.214 8882272.727 -18294926.798 10 0 60928 8100.00000 0 -17543377.694 8989892.532 -16217681.600 10 0 60928 9000.00000 0 -19383499.142 9222484.332 -13826103.019 10 0 60928 9900.00000 0 -20895210.480 9536193.716 -11166734.254 10 0 60928 10800.00000 0 -22048571.141 9881272.603 -8291224.440 10 0 60928 11700.00000 0 -22825827.439 10204361.615 -5255325.874 10 0 60928 12600.00000 0 -23221973.566 10450930.263 -2117818.202 10 0 60928 13500.00000 0 -23244798.406 10567772.535 1060620.044 10 0 60928 14400.00000 0 -22914418.466 10505453.624 4218571.495 10 0 60928 15300.00000 0 -22262318.050 10220605.953 7295050.212 10 0 60928 16200.00000 0 -21329937.796 9677979.142 10230660.930 10 0 60928 17100.00000 0 -20166870.801 8852158.830 12968726.446 10 0 60928 18000.00000 0 -18828741.257 7728882.875 15456363.056 10 0 60928 18900.00000 0 -17374853.198 6305899.866 17645484.992 10 0 60928 19800.00000 0 -15865706.013 4593333.363 19493720.115 10 0 60928 20700.00000 0 -14360478.732 2613535.262 20965220.552 10 0 60928 21600.00000 0 -12914586.285 400432.235 22031353.701 10 0 60928 22500.00000 0 -11577408.156 -2001610.360 22671260.851 10 0 60928 23400.00000 0 -10390283.060 -4539363.050 22872272.618 10 0 60928 24300.00000 0 -9384852.782 -7152683.343 22630172.623 10 0 60928 25200.00000 0 -8581824.412 -9776765.689 21949303.079 10 0 60928 26100.00000 0 -7990203.473 -12344599.828 20842508.502 10 0 60928 27000.00000 0 -7607031.350 -14789537.795 19330916.439 10 0 60928 27900.00000 0 -7417639.735 -17047864.413 17443556.980 10 0 60928 28800.00000 0 -7396413.315 -19061264.895 15216825.905 10 0 60928 29700.00000 0 -7508030.435 -20779086.378 12693799.549 10 0 60928 30600.00000 0 -7709130.870 -22160297.851 9923412.658 10 0 60928 31500.00000 0 -7950341.167 -23175064.683 6959513.926 10 0 60928 32400.00000 0 -8178571.942 -23805869.690 3859816.889 10 0 60928 33300.00000 0 -8339489.065 -24048131.511 684766.793 10 0 60928 34200.00000 0 -8380052.321 -23910292.474 -2503653.481 10 0 60928 35100.00000 0 -8251011.513 -23413370.980 -5643153.503 10 0 60928 36000.00000 0 -7909251.241 -22589996.799 -8672375.187 10 0 60928 36900.00000 0 -7319881.850 -21482970.325 -11532115.736 10 0 60928 37800.00000 0 -6457984.912 -20143407.808 -14166507.220 10 0 60928 38700.00000 0 -5309936.736 -18628552.623 -16524127.392 10 0 60928 39600.00000 0 -3874251.905 -16999347.222 -18559018.064 10 0 60928 40500.00000 0 -2161909.953 -15317870.453 -20231589.836 10 0 60928 41400.00000 0 -196150.866 -13644750.365 -21509394.832 10 0 60928 42300.00000 0 1988251.792 -12036663.019 -22367752.391 10 0 60928 43200.00000 0 4346208.891 -10544023.360 -22790216.234 10 0 60928 44100.00000 0 6823972.781 -9208965.127 -22768875.234 10 0 60928 45000.00000 0 9361162.842 -8063693.710 -22304483.639 10 0 60928 45900.00000 0 11893073.884 -7129279.196 -21406420.131 10 0 60928 46800.00000 0 14353170.370 -6414937.730 -20092478.547 10 0 60928 47700.00000 0 16675662.264 -5917828.276 -18388496.299 10 0 60928 48600.00000 0 18798055.552 -5623370.052 -16327829.519 10 0 60928 49500.00000 0 20663572.242 -5506064.064 -13950686.602 10 0 60928 50400.00000 0 22223340.622 -5530781.331 -11303334.270 10 0 60928 51300.00000 0 23438266.596 -5654461.244 -8437192.349 10 0 60928 52200.00000 0 24280510.532 -5828146.908 -5407835.147 10 0 60928 53100.00000 0 24734510.574 -5999270.823 -2273918.827 10 0 60928 54000.00000 0 24797512.182 -6114094.415 903944.908 10 0 60928 54900.00000 0 24479584.006 -6120199.103 4064347.765 10 0 60928 55800.00000 0 23803121.137 -5968924.839 7146255.100 10 0 60928 56700.00000 0 22801857.586 -5617654.658 10090166.191 10 0 60928 57600.00000 0 21519429.661 -5031850.238 12839243.705 10 0 60928 58500.00000 0 20007549.903 -4186753.878 15340392.189 10 0 60928 59400.00000 0 18323866.879 -3068685.902 17545266.513 10 0 60928 60300.00000 0 16529598.578 -1675882.884 19411192.408 10 0 60928 61200.00000 0 14687036.300 -18840.691 20901982.718 10 0 60928 62100.00000 0 12857021.052 1879853.774 21988634.692 10 0 60928 63000.00000 0 11096495.694 3986197.584 22649895.448 10 0 60928 63900.00000 0 9456233.240 6255928.482 22872684.722 10 0 60928 64800.00000 0 7978834.844 8636118.536 22652366.201 10 0 60928 65700.00000 0 6697080.427 11067141.965 21992860.991 10 0 60928 66600.00000 0 5632700.943 13484938.558 20906599.327 10 0 60928 67500.00000 0 4795624.337 15823481.298 19414309.269 10 0 60928 68400.00000 0 4183728.021 18017347.544 17544644.005 10 0 60928 69300.00000 0 3783109.824 20004287.688 15333652.483 10 0 60928 70200.00000 0 3568867.696 21727684.275 12824101.259 10 0 60928 71100.00000 0 3506356.765 23138798.015 10064658.723 10 0 60928 72000.00000 0 3552871.730 24198705.052 7108956.189 10 0 60928 72900.00000 0 3659683.817 24879842.122 4014543.431 10 0 60928 73800.00000 0 3774345.599 25167092.362 841759.127 10 0 60928 74700.00000 0 3843164.723 25058363.827 -2347460.811 10 0 60928 75600.00000 0 3813739.532 24564634.520 -5490812.142 10 0 60928 76500.00000 0 3637446.359 23709460.899 -8526862.306 10 0 60928 77400.00000 0 3271769.953 22527970.239 -11396274.791 10 0 60928 78300.00000 0 2682375.148 21065379.891 -14042991.401 10 0 60928 79200.00000 0 1844829.178 19375107.145 -16415346.992 10 0 60928 80100.00000 0 745899.423 17516551.277 -18467092.876 10 0 60928 81000.00000 0 -615629.936 15552643.313 -20158307.570 10 0 60928 81900.00000 0 -2228657.712 13547268.771 -21456176.376 10 0 60928 82800.00000 0 -4069994.736 11562673.514 -22335624.590 10 0 60928 83700.00000 0 -6105112.012 9656962.834 -22779792.637 10 0 60928 84600.00000 0 -8289375.672 7881799.023 -22780345.140 10 0 60928 85500.00000 0 -10569715.736 6280393.425 -22337609.541 10 0 60929 0.00000 0 -12886657.470 4885875.671 -21460543.623 10 0 60929 900.00000 0 -15176630.692 3720105.403 -20166534.047 10 0 60929 1800.00000 0 -17374456.884 2792975.078 -18481033.055 10 0 60929 2700.00000 0 -19415914.384 2102227.212 -16437040.678 10 0 60929 3600.00000 0 -21240272.092 1633792.143 -14074445.044 10 0 60929 4500.00000 0 -22792688.334 1362627.982 -11439234.431 10 0 60929 5400.00000 0 -24026376.239 1254024.704 -8582597.175 10 0 60929 6300.00000 0 -24904447.300 1265315.202 -5559927.263 10 0 60929 7200.00000 0 -25401358.399 1347919.756 -2429754.914 10 0 60929 8100.00000 0 -25503904.146 1449637.008 747377.546 10 0 60929 9000.00000 0 -25211715.195 1517084.919 3910073.538 10 0 60929 9900.00000 0 -24537243.392 1498189.403 6997252.424 10 0 60929 10800.00000 0 -23505235.613 1344616.829 9949310.783 10 0 60929 11700.00000 0 -22151718.717 1014049.164 12709253.916 10 0 60929 12600.00000 0 -20522537.876 472207.166 15223777.349 10 0 60929 13500.00000 0 -18671508.338 -305462.567 17444279.181 10 0 60929 14400.00000 0 -16658256.247 -1332507.249 19327785.409 10 0 60929 15300.00000 0 -14545836.547 -2610648.322 20837771.710 10 0 60929 16200.00000 0 -12398224.978 -4129458.187 21944866.957 10 0 60929 17100.00000 0 -10277786.334 -5866548.766 22627425.486 10 0 60929 18000.00000 0 -8242822.319 -7788266.712 22871957.136 10 0 60929 18900.00000 0 -6345299.428 -9850869.502 22673406.230 10 0 60929 19800.00000 0 -4628850.357 -12002136.864 22035272.942 10 0 60929 20700.00000 0 -3127131.846 -14183353.810 20969573.009 10 0 60929 21600.00000 0 -1862607.668 -16331585.723 19496634.408 10 0 60929 22500.00000 0 -845808.461 -18382153.088 17644732.468 10 0 60929 23400.00000 0 -75100.641 -20271204.183 15449567.984 10 0 60929 24300.00000 0 463024.445 -21938278.848 12953596.073 10 0 60929 25200.00000 0 793151.875 -23328755.705 10205216.791 10 0 60929 26100.00000 0 949667.515 -24396078.922 7257841.822 10 0 60929 27000.00000 0 975058.713 -25103669.089 4168854.697 10 0 60929 27900.00000 0 917863.298 -25426435.423 998484.866 10 0 60929 28800.00000 0 830354.706 -25351823.102 -2191381.517 10 0 60929 29700.00000 0 766063.106 -24880349.307 -5338429.286 10 0 60929 30600.00000 0 777240.062 -24025603.563 -8381154.356 10 0 60929 31500.00000 0 912377.176 -22813711.363 -11260089.474 10 0 60929 32400.00000 0 1213886.979 -21282283.492 -13918989.137 10 0 60929 33300.00000 0 1716047.319 -19478896.009 -16305948.181 10 0 60929 34200.00000 0 2443298.839 -17459166.287 -18374430.138 10 0 60929 35100.00000 0 3408969.508 -15284507.928 -20084183.924 10 0 60929 36000.00000 0 4614481.282 -13019660.925 -21402030.187 10 0 60929 36900.00000 0 6049072.802 -10730102.678 -22302501.963 10 0 60929 37800.00000 0 7690049.514 -8479449.836 -22768327.752 10 0 60929 38700.00000 0 9503549.894 -6326960.541 -22790748.866 10 0 60929 39600.00000 0 11445794.384 -4325241.501 -22369666.458 10 0 60929 40500.00000 0 13464763.341 -2518254.722 -21513617.328 10 0 60929 41400.00000 0 15502232.496 -939705.282 -20239580.987 10 0 60929 42300.00000 0 17496079.787 388125.138 -18572623.712 10 0 60929 43200.00000 0 19382766.614 1455053.461 -16545388.346 10 0 60929 44100.00000 0 21099889.857 2263154.506 -14197441.238 10 0 60929 45000.00000 0 22588698.618 2826401.265 -11574490.260 10 0 60929 45900.00000 0 23796471.716 3169804.636 -8727489.850 10 0 60929 46800.00000 0 24678658.188 3328091.566 -5711650.854 10 0 60929 47700.00000 0 25200693.247 3343979.347 -2585374.383 10 0 60929 48600.00000 0 25339415.854 3266120.049 590870.045 10 0 60929 49500.00000 0 25084030.575 3146802.232 3755701.120 10 0 60929 50400.00000 0 24436575.213 3039506.545 6847995.773 10 0 60929 51300.00000 0 23411875.880 2996417.477 9808051.346 10 0 60929 52200.00000 0 22036991.974 3065994.877 12578719.029 10 0 60929 53100.00000 0 20350174.175 3290706.247 15106488.288 10 0 60929 54000.00000 0 18399378.118 3705014.028 17342503.103 10 0 60929 54900.00000 0 16240394.275 4333701.718 19243492.025 10 0 60929 55800.00000 0 13934669.946 5190608.944 20772595.488 10 0 60929 56700.00000 0 11546911.682 6277829.063 21900075.532 10 0 60929 57600.00000 0 9142565.359 7585404.347 22603894.862 10 0 60929 58500.00000 0 6785276.311 9091533.619 22870154.154 10 0 60929 59400.00000 0 4534433.008 10763286.499 22693378.661 10 0 60929 60300.00000 0 2442894.851 12557797.675 22076647.457 10 0 60929 61200.00000 0 554997.702 14423894.714 21031561.141 10 0 60929 62100.00000 0 -1095080.041 16304094.683 19578046.498 10 0 60929 63000.00000 0 -2484522.263 18136888.954 17743999.449 10 0 60929 63900.00000 0 -3602599.540 19859222.686 15564770.696 10 0 60929 64800.00000 0 -4450881.538 21409066.334 13082501.646 10 0 60929 65700.00000 0 -5042927.097 22727971.520 10345321.477 10 0 60929 66600.00000 0 -5403463.802 23763503.083 7406419.502 10 0 60929 67500.00000 0 -5567090.824 24471443.355 4323010.128 10 0 60929 68400.00000 0 -5576559.641 24817673.521 1155210.604 10 0 60929 69300.00000 0 -5480705.940 24779650.107 -2035145.658 10 0 60929 70200.00000 0 -5332121.662 24347411.696 -5185735.509 10 0 60929 71100.00000 0 -5184667.975 23524071.078 -8234986.170 10 0 60929 72000.00000 0 -5090937.285 22325770.409 -11123302.291 10 0 60929 72900.00000 0 -5099774.848 20781100.376 -13794253.485 10 0 60929 73800.00000 0 -5253968.025 18930007.817 -16195696.725 10 0 60929 74700.00000 0 -5588203.726 16822238.578 -18280809.667 10 0 60929 75600.00000 0 -6127382.671 14515382.514 -20009013.267 10 0 60929 76500.00000 0 -6885363.178 12072604.477 -21346764.932 10 0 60929 77400.00000 0 -7864188.194 9560158.355 -22268206.616 10 0 60929 78300.00000 0 -9053828.066 7044789.870 -22755655.856 10 0 60929 79200.00000 0 -10432449.141 4591137.839 -22799931.352 10 0 60929 80100.00000 0 -11967195.673 2259242.853 -22400508.380 10 0 60929 81000.00000 0 -13615450.696 102266.839 -21565502.929 10 0 60929 81900.00000 0 -15326521.453 -1835482.783 -20311486.906 10 0 60929 82800.00000 0 -17043677.395 -3520144.151 -18663139.996 10 0 60929 83700.00000 0 -18706454.404 -4929443.827 -16652746.773 10 0 60929 84600.00000 0 -20253128.339 -6053347.184 -14319550.375 10 0 60929 85500.00000 0 -21623254.427 -6894192.769 -11708976.515 10 0 60930 0.00000 0 -22760166.819 -7466308.574 -8871743.987 10 0 60930 900.00000 0 -23613335.445 -7795129.812 -5862877.744 10 0 60930 1800.00000 0 -24140481.602 -7915857.164 -2740647.608 10 0 60930 2700.00000 0 -24309367.525 -7871714.833 434552.300 10 0 60930 3600.00000 0 -24099185.287 -7711881.977 3601358.684 10 0 60930 4500.00000 0 -23501489.147 -7489185.213 6698608.916 10 0 60930 5400.00000 0 -22520633.488 -7257648.918 9666504.066 10 0 60930 6300.00000 0 -21173698.713 -7070005.467 12447744.212 10 0 60930 7200.00000 0 -19489908.226 -6975268.966 14988615.735 10 0 60930 8100.00000 0 -17509560.161 -7016473.191 17240011.341 10 0 60930 9000.00000 0 -15282516.981 -7228667.693 19158364.766 10 0 60930 9900.00000 0 -12866313.899 -7637255.512 20706483.529 10 0 60930 10800.00000 0 -10323962.375 -8256742.219 21854264.792 10 0 60930 11700.00000 0 -7721537.307 -9089949.404 22579281.168 10 0 60930 12600.00000 0 -5125645.478 -10127727.057 22867225.272 10 0 60930 13500.00000 0 -2600877.936 -11349179.129 22712203.949 10 0 60930 14400.00000 0 -207350.074 -12722395.636 22116875.417 10 0 60930 15300.00000 0 2001569.746 -14205663.845 21092424.986 10 0 60930 16200.00000 0 3981249.280 -15749111.065 19658377.723 10 0 60930 17100.00000 0 5697416.372 -17296713.226 17842249.254 10 0 60930 18000.00000 0 7127349.363 -18788587.469 15679038.937 10 0 60930 18900.00000 0 8260583.115 -20163474.162 13210572.875 10 0 60930 19800.00000 0 9099099.693 -21361304.763 10484707.429 10 0 60930 20700.00000 0 9656994.349 -22325747.102 7554407.279 10 0 60930 21600.00000 0 9959629.834 -23006619.609 4476715.172 10 0 60930 22500.00000 0 10042314.150 -23362070.567 1311633.413 10 0 60930 23400.00000 0 9948557.799 -23360427.818 -1879060.223 10 0 60930 24300.00000 0 9727985.198 -22981637.969 -5033037.581 10 0 60930 25200.00000 0 9433990.422 -22218231.659 -8088660.175 10 0 60930 26100.00000 0 9121238.990 -21075771.876 -10986207.527 10 0 60930 27000.00000 0 8843124.329 -19572764.842 -13669067.248 10 0 60930 27900.00000 0 8649289.638 -17740036.522 -16084861.218 10 0 60930 28800.00000 0 8583322.878 -15619601.119 -18186483.795 10 0 60930 29700.00000 0 8680724.766 -13263070.007 -19933030.324 10 0 60930 30600.00000 0 8967237.397 -10729669.301 -21290597.019 10 0 60930 31500.00000 0 9457604.987 -8083950.861 -22232936.462 10 0 60930 32400.00000 0 10154819.086 -5393294.165 -22741956.548 10 0 60930 33300.00000 0 11049879.452 -2725304.750 -22808054.302 10 0 60930 34200.00000 0 12122079.353 -145218.558 -22430279.670 10 0 60930 35100.00000 0 13339801.668 2286579.607 -21616328.008 10 0 60930 36000.00000 0 14661790.542 4516821.036 -20382363.442 10 0 60930 36900.00000 0 16038843.450 6501308.824 -18752678.531 10 0 60930 37800.00000 0 17415851.256 8206485.391 -16759198.693 10 0 60930 38700.00000 0 18734099.702 9610549.599 -14440842.590 10 0 60930 39600.00000 0 19933735.375 10704080.313 -11842752.124 10 0 60930 40500.00000 0 20956292.937 11490144.005 -9015407.861 10 0 60930 41400.00000 0 21747178.353 11983885.312 -6013647.452 10 0 60930 42300.00000 0 22258005.220 12211620.745 -2895606.159 10 0 60930 43200.00000 0 22448687.727 12209475.936 278400.334 10 0 60930 44100.00000 0 22289204.179 12021625.299 3447029.964 10 0 60930 45000.00000 0 21760958.713 11698208.861 6549083.834 10 0 60930 45900.00000 0 20857685.463 11293013.906 9524669.998 10 0 60930 46800.00000 0 19585858.086 10861018.239 12316340.572 10 0 60930 47700.00000 0 17964587.705 10455897.281 14870181.817 10 0 60930 48600.00000 0 16025012.980 10127598.354 17136837.899 10 0 60930 49500.00000 0 13809206.432 9920082.707 19072450.218 10 0 60930 50400.00000 0 11368640.704 9869328.934 20639495.564 10 0 60930 51300.00000 0 8762276.062 10001680.916 21807508.090 10 0 60930 52200.00000 0 6054345.804 10332609.573 22553671.831 10 0 60930 53100.00000 0 3311928.657 10865941.078 22863272.457 10 0 60930 54000.00000 0 602406.098 11593585.400 22729999.083 10 0 60930 54900.00000 0 -2009092.315 12495778.771 22156089.266 10 0 60930 55800.00000 0 -4462151.353 13541832.615 21152312.703 10 0 60930 56700.00000 0 -6703339.175 14691360.534 19737791.909 10 0 60930 57600.00000 0 -8688189.019 15895934.804 17939660.866 10 0 60930 58500.00000 0 -10382810.633 17101105.439 15792565.805 10 0 60930 59400.00000 0 -11765063.273 18248698.872 13338015.350 10 0 60930 60300.00000 0 -12825239.865 19279300.667 10623590.593 10 0 60930 61200.00000 0 -13566232.201 20134817.730 7702028.925 10 0 60930 62100.00000 0 -14003168.893 20761011.080 4630198.651 10 0 60930 63000.00000 0 -14162540.452 21109890.456 1467984.292 10 0 60930 63900.00000 0 -14080848.102 21141867.106 -1722894.877 10 0 60930 64800.00000 0 -13802833.889 20827570.888 -4880108.517 10 0 60930 65700.00000 0 -13379368.266 20149251.933 -7941955.194 10 0 60930 66600.00000 0 -12865086.513 19101704.963 -10848591.942 10 0 60930 67500.00000 0 -12315876.672 17692675.123 -13543226.847 10 0 60930 68400.00000 0 -11786328.112 15942726.788 -15973248.963 10 0 60930 69300.00000 0 -11327251.587 13884580.373 -18091271.395 10 0 60930 70200.00000 0 -10983378.109 11561945.280 -19856065.678 10 0 60930 71100.00000 0 -10791335.845 9027898.901 -21233368.378 10 0 60930 72000.00000 0 -10777991.583 6342881.051 -22196544.009 10 0 60930 72900.00000 0 -10959227.062 3572389.255 -22727091.884 10 0 60930 73800.00000 0 -11339201.173 784472.610 -22814988.150 10 0 60930 74700.00000 0 -11910127.881 -1952870.184 -22458857.933 10 0 60930 75600.00000 0 -12652577.403 -4574279.814 -21665976.156 10 0 60930 76500.00000 0 -13536285.905 -7019504.922 -20452099.013 10 0 60930 77400.00000 0 -14521437.568 -9235648.684 -18841131.431 10 0 60930 78300.00000 0 -15560363.199 -11179101.886 -16864638.817 10 0 60930 79200.00000 0 -16599582.540 -12817084.706 -14561214.161 10 0 60930 80100.00000 0 -17582103.461 -14128736.090 -11975714.059 10 0 60930 81000.00000 0 -18449881.082 -15105708.752 -9158379.359 10 0 60930 81900.00000 0 -19146333.799 -15752248.390 -6163857.913 10 0 60930 82800.00000 0 -19618811.289 -16084756.991 -3050148.499 10 0 60930 83700.00000 0 -19820912.057 -16130861.204 122514.010 10 0 60930 84600.00000 0 -19714554.670 -15928026.882 3292811.321 10 0 60930 85500.00000 0 -19271717.212 -15521779.150 6399510.973 99